| time (UTC) | temp C | wind direction | speed KPH | gust KPH | rain 1hr cm | rain 24hr cm | rain mn cm | humidity % | barometer mb |
| 20260510131528 | 22 | 79 | 3.2 | 6.4 | 0.00 | 0.00 | 0.00 | 84 | 1013.1 |
| 20260510130041 | 22 | 59 | 1.6 | 6.4 | 0.00 | 0.00 | 0.00 | 83 | 1013.0 |
| 20260510124528 | 22 | 0 | 0.0 | 1.6 | 0.00 | 0.00 | 0.00 | 84 | 1012.5 |
| 20260510123025 | 21 | 57 | 0.0 | 3.2 | 0.00 | 0.00 | 0.00 | 88 | 1012.5 |
| 20260510121527 | 21 | 0 | 0.0 | 3.2 | 0.00 | 0.00 | 0.00 | 89 | 1012.4 |
| 20260510120032 | 20 | 249 | 0.0 | 0.0 | 0.00 | 0.00 | 0.00 | 89 | 1012.1 |
| 20260510114528 | 20 | 0 | 0.0 | 0.0 | 0.00 | 0.00 | 0.00 | 88 | 1011.8 |
| 20260510113026 | 21 | 0 | 0.0 | 0.0 | 0.00 | 0.00 | 0.00 | 87 | 1011.8 |
| 20260510111525 | 21 | 0 | 0.0 | 1.6 | 0.00 | 0.00 | 0.00 | 86 | 1011.8 |
| 20260510110037 | 21 | 0 | 0.0 | 3.2 | 0.00 | 0.00 | 0.00 | 86 | 1011.6 |
| 20260510104526 | 21 | 281 | 0.0 | 3.2 | 0.00 | 0.00 | 0.00 | 85 | 1011.4 |
| 20260510103025 | 21 | 238 | 1.6 | 8.0 | 0.00 | 0.00 | 0.00 | 84 | 1011.0 |
| 20260510101534 | 21 | 0 | 0.0 | 6.4 | 0.00 | 0.00 | 0.00 | 83 | 1011.2 |
| 20260510100028 | 21 | 0 | 0.0 | 4.8 | 0.00 | 0.00 | 0.00 | 83 | 1011.1 |
| 20260510094528 | 21 | 250 | 0.0 | 4.8 | 0.00 | 0.00 | 0.00 | 84 | 1011.1 |
| 20260510093029 | 21 | 256 | 0.0 | 3.2 | 0.00 | 0.00 | 0.00 | 84 | 1011.2 |
| 20260510091533 | 21 | 0 | 0.0 | 6.4 | 0.00 | 0.00 | 0.00 | 84 | 1011.0 |
| 20260510090030 | 21 | 141 | 0.0 | 4.8 | 0.00 | 0.00 | 0.00 | 83 | 1011.2 |
| 20260510084534 | 22 | 320 | 0.0 | 4.8 | 0.00 | 0.03 | 0.00 | 83 | 1011.1 |
| 20260510083027 | 22 | 174 | 0.0 | 1.6 | 0.00 | 0.03 | 0.00 | 82 | 1011.3 |
| 20260510081529 | 22 | 199 | 0.0 | 3.2 | 0.00 | 0.03 | 0.00 | 81 | 1011.4 |
| 20260510080027 | 22 | 88 | 0.0 | 6.4 | 0.00 | 0.03 | 0.00 | 80 | 1011.5 |
| 20260510074530 | 22 | 73 | 0.0 | 1.6 | 0.00 | 0.03 | 0.00 | 80 | 1011.5 |
| 20260510073027 | 22 | 0 | 0.0 | 3.2 | 0.00 | 0.03 | 0.00 | 78 | 1011.3 |
| 20260510071530 | 22 | 0 | 0.0 | 1.6 | 0.00 | 0.03 | 0.00 | 78 | 1011.4 |
| 20260510070033 | 22 | 66 | 0.0 | 4.8 | 0.00 | 0.03 | 0.00 | 77 | 1011.6 |
| 20260510064533 | 22 | 75 | 3.2 | 6.4 | 0.00 | 0.03 | 0.00 | 76 | 1011.5 |
| 20260510063028 | 23 | 0 | 0.0 | 3.2 | 0.00 | 0.03 | 0.00 | 75 | 1011.3 |
| 20260510061526 | 23 | 0 | 0.0 | 1.6 | 0.00 | 0.03 | 0.00 | 75 | 1011.4 |
| 20260510060032 | 23 | 0 | 0.0 | 4.8 | 0.00 | 0.03 | 0.00 | 75 | 1011.2 |
| 20260510054531 | 23 | 0 | 0.0 | 6.4 | 0.00 | 0.03 | 0.00 | 75 | 1011.1 |
| 20260510053028 | 23 | 0 | 1.6 | 3.2 | 0.00 | 0.03 | 0.00 | 76 | 1011.2 |
| 20260510051526 | 24 | 0 | 0.0 | 1.6 | 0.00 | 0.03 | 0.00 | 75 | 1011.3 |
| 20260510050028 | 24 | 64 | 0.0 | 3.2 | 0.00 | 0.03 | 0.00 | 74 | 1011.3 |
| 20260510044528 | 24 | 78 | 0.0 | 3.2 | 0.00 | 0.03 | 0.03 | 75 | 1011.1 |
| 20260510043028 | 25 | 53 | 1.6 | 8.0 | 0.00 | 0.03 | 0.03 | 75 | 1011.2 |
| 20260510041527 | 25 | 69 | 1.6 | 4.8 | 0.00 | 0.03 | 0.03 | 75 | 1011.0 |
| 20260510040029 | 25 | 0 | 0.0 | 1.6 | 0.00 | 0.03 | 0.03 | 73 | 1010.8 |
| 20260510034529 | 26 | 0 | 0.0 | 3.2 | 0.00 | 0.03 | 0.03 | 74 | 1010.6 |
| 20260510033028 | 26 | 74 | 0.0 | 3.2 | 0.00 | 0.03 | 0.03 | 74 | 1010.6 |
| 20260510031530 | 26 | 47 | 1.6 | 3.2 | 0.00 | 0.03 | 0.03 | 73 | 1010.4 |
| 20260510030028 | 26 | 0 | 0.0 | 3.2 | 0.00 | 0.03 | 0.03 | 73 | 1010.3 |
| 20260510024529 | 26 | 205 | 0.0 | 4.8 | 0.00 | 0.03 | 0.03 | 73 | 1010.0 |
| 20260510023031 | 27 | 0 | 0.0 | 4.8 | 0.00 | 0.03 | 0.03 | 73 | 1009.8 |
| 20260510021531 | 27 | 0 | 0.0 | 4.8 | 0.00 | 0.03 | 0.03 | 72 | 1009.6 |
| 20260510020028 | 27 | 0 | 0.0 | 6.4 | 0.00 | 0.03 | 0.03 | 71 | 1009.5 |
| 20260510014528 | 28 | 55 | 0.0 | 3.2 | 0.00 | 0.03 | 0.03 | 68 | 1009.3 |
| 20260510013030 | 28 | 25 | 0.0 | 3.2 | 0.00 | 0.03 | 0.03 | 67 | 1009.1 |
| 20260510011530 | 28 | 0 | 0.0 | 3.2 | 0.00 | 0.03 | 0.03 | 66 | 1009.0 |
| 20260510010029 | 29 | 65 | 3.2 | 8.0 | 0.00 | 0.03 | 0.03 | 64 | 1008.9 |
| 20260510004530 | 29 | 53 | 1.6 | 8.0 | 0.00 | 0.03 | 0.03 | 64 | 1008.9 |
| 20260510003026 | 29 | 44 | 1.6 | 6.4 | 0.00 | 0.03 | 0.03 | 63 | 1008.8 |
| 20260510001528 | 30 | 211 | 0.0 | 4.8 | 0.00 | 0.03 | 0.03 | 61 | 1008.7 |
| 20260510000034 | 30 | 264 | 0.0 | 8.0 | 0.00 | 0.03 | 0.03 | 59 | 1008.5 |
| 20260509234539 | 30 | 0 | 0.0 | 4.8 | 0.00 | 0.03 | 0.03 | 58 | 1008.3 |
| 20260509233026 | 30 | 30 | 1.6 | 6.4 | 0.00 | 0.03 | 0.03 | 57 | 1008.2 |
| 20260509231528 | 30 | 79 | 0.0 | 9.7 | 0.00 | 0.03 | 0.03 | 58 | 1008.2 |
| 20260509230028 | 30 | 109 | 1.6 | 6.4 | 0.00 | 0.03 | 0.03 | 58 | 1008.1 |
| 20260509224540 | 30 | 110 | 1.6 | 6.4 | 0.00 | 0.03 | 0.03 | 57 | 1008.2 |
| 20260509223029 | 31 | 96 | 0.0 | 9.7 | 0.00 | 0.03 | 0.03 | 51 | 1008.2 |
| 20260509221531 | 31 | 61 | 1.6 | 4.8 | 0.00 | 0.03 | 0.03 | 49 | 1008.1 |
| 20260509220029 | 31 | 86 | 0.0 | 3.2 | 0.00 | 0.03 | 0.03 | 43 | 1008.2 |
| 20260509214527 | 30 | 215 | 1.6 | 6.4 | 0.00 | 0.03 | 0.03 | 45 | 1008.3 |
| 20260509213026 | 30 | 110 | 3.2 | 11.3 | 0.00 | 0.03 | 0.03 | 52 | 1008.6 |
| 20260509211529 | 30 | 53 | 3.2 | 11.3 | 0.00 | 0.03 | 0.03 | 51 | 1008.8 |
| 20260509210030 | 30 | 233 | 1.6 | 8.0 | 0.00 | 0.03 | 0.03 | 51 | 1009.1 |
| 20260509204529 | 30 | 276 | 1.6 | 8.0 | 0.00 | 0.03 | 0.03 | 54 | 1008.8 |
| 20260509203034 | 30 | 272 | 1.6 | 8.0 | 0.00 | 0.03 | 0.03 | 49 | 1009.0 |
| 20260509201526 | 27 | 73 | 6.4 | 20.9 | 0.00 | 0.03 | 0.03 | 55 | 1009.2 |
| 20260509200028 | 26 | 57 | 8.0 | 22.5 | 0.00 | 0.03 | 0.03 | 70 | 1009.9 |
| 20260509194529 | 28 | 80 | 8.0 | 17.7 | 0.00 | 0.03 | 0.03 | 58 | 1009.9 |
| 20260509193029 | 33 | 0 | 0.0 | 6.4 | 0.00 | 0.03 | 0.03 | 52 | 1009.5 |
| 20260509191528 | 33 | 226 | 1.6 | 4.8 | 0.00 | 0.03 | 0.03 | 53 | 1009.6 |
| 20260509190030 | 32 | 262 | 0.0 | 3.2 | 0.00 | 0.03 | 0.03 | 59 | 1009.6 |
| 20260509184541 | 33 | 267 | 0.0 | 3.2 | 0.00 | 0.03 | 0.03 | 56 | 1009.8 |
| 20260509183027 | 32 | 56 | 0.0 | 6.4 | 0.00 | 0.03 | 0.03 | 59 | 1010.1 |
| 20260509181529 | 32 | 225 | 3.2 | 8.0 | 0.00 | 0.03 | 0.03 | 61 | 1010.3 |
| 20260509180040 | 32 | 256 | 0.0 | 6.4 | 0.00 | 0.03 | 0.03 | 61 | 1010.4 |
| 20260509174530 | 31 | 158 | 3.2 | 11.3 | 0.00 | 0.03 | 0.03 | 63 | 1010.6 |
| 20260509173026 | 31 | 157 | 0.0 | 1.6 | 0.00 | 0.03 | 0.03 | 65 | 1011.0 |
| 20260509171528 | 30 | 261 | 1.6 | 8.0 | 0.00 | 0.03 | 0.03 | 66 | 1011.1 |
| 20260509170045 | 29 | 120 | 3.2 | 9.7 | 0.00 | 0.03 | 0.03 | 71 | 1011.0 |
| 20260509164527 | 30 | 272 | 3.2 | 8.0 | 0.00 | 0.03 | 0.03 | 70 | 1011.2 |
| 20260509163027 | 28 | 231 | 3.2 | 9.7 | 0.00 | 0.03 | 0.03 | 72 | 1011.3 |
| 20260509161527 | 28 | 241 | 0.0 | 9.7 | 0.00 | 0.03 | 0.03 | 74 | 1011.3 |
| 20260509160028 | 27 | 0 | 0.0 | 4.8 | 0.00 | 0.03 | 0.03 | 75 | 1011.3 |
| 20260509154528 | 26 | 188 | 1.6 | 6.4 | 0.00 | 0.03 | 0.03 | 80 | 1011.3 |
| 20260509153031 | 25 | 0 | 0.0 | 9.7 | 0.00 | 0.03 | 0.03 | 86 | 1011.3 |
| 20260509151528 | 25 | 0 | 1.6 | 8.0 | 0.00 | 0.03 | 0.03 | 86 | 1011.5 |
| 20260509150026 | 25 | 131 | 1.6 | 4.8 | 0.00 | 0.03 | 0.03 | 87 | 1011.3 |
| 20260509144532 | 23 | 0 | 0.0 | 3.2 | 0.00 | 0.03 | 0.03 | 92 | 1011.2 |
| 20260509143030 | 23 | 252 | 0.0 | 4.8 | 0.00 | 0.03 | 0.03 | 92 | 1011.1 |
| 20260509141539 | 23 | 206 | 0.0 | 6.4 | 0.00 | 0.03 | 0.03 | 93 | 1010.8 |
| 20260509140028 | 23 | 193 | 1.6 | 4.8 | 0.00 | 0.03 | 0.03 | 94 | 1010.8 |
| 20260509134532 | 22 | 194 | 0.0 | 1.6 | 0.00 | 0.03 | 0.03 | 94 | 1010.9 |
| 20260509133030 | 22 | 0 | 0.0 | 1.6 | 0.00 | 0.03 | 0.03 | 95 | 1011.2 |